Mattoon, IL

10:07 AM CST on December 11, 2019 (GMT -0600)
Coles County Memorial

Weather History for KMTO - June, 2019

Change the Weather History Date:

Sunday, June 2, 2019

  Actual Average Record
Temperature  
Mean Temperature 68 °F 68 °F  
Max Temperature 79 °F 79 °F 94 °F (1951)
Min Temperature 57 °F 58 °F 43 °F (1956)
Degree Days  
Heating Degree Days 0 2  
Month to date heating degree days 0 4  
Since 1 June heating degree days 0 4  
Since 1 July heating degree days 5517 5394  
Cooling Degree Days 3 5  
Month to date cooling degree days 11 9  
Year to date cooling degree days 136 97  
Since 1 June cooling degree days 11 9  
Growing Degree Days 20 (Base 50)    
Moisture  
Dew Point 53 °F    
Average Humidity 63    
Maximum Humidity 93    
Minimum Humidity 33    
Precipitation  
Precipitation 0.00 in 0.17 in 1.20 in (1965)
Month to date precipitation 0.00 0.34  
Year to date precipitation 11.63 14.69  
Sea Level Pressure  
Sea Level Pressure 29.89 in    
Wind  
Wind Speed 10 mph (NNW)    
Max Wind Speed 20 mph    
Max Gust Speed 27 mph    
Visibility 10 miles    
Events      
T = Trace of Precipitation, MM = Missing Value Source: NWS Daily Summary

Daily Weather History Graph

Daily Weather History Graph

Search for Another Location

Airport or City:

Astronomy

Jun. 02, 2019 Rise Set
Actual Time 5:27 AM CDT 8:14 PM CDT
Civil Twilight 4:55 AM CDT 8:46 PM CDT
Nautical Twilight 4:15 AM CDT 9:26 PM CDT
Astronomical Twilight 3:30 AM CDT 10:12 PM CDT
Moon 5:06 AM CDT (6/2) 7:34 PM CDT (6/2)
Length of Visible Light 15h 50m
Length of Day
14h 47m
Waning Crescent, 1% of the Moon is Illuminated
Jun 2
Waning Crescent
Jun 3
New
Jun 10
First Quarter
Jun 17
Full
Jun 25
Last Quarter

Hourly Weather History & Observations

Time (CDT) Temp. Dew Point Humidity Pressure Visibility Wind Dir Wind Speed Gust Speed Precip Events Conditions
12:53 AM 68.0 °F 60.1 °F 76% 29.76 in 10.0 mi WNW 9.2 mph - N/A   Clear
1:53 AM 66.9 °F 60.1 °F 79% 29.76 in 10.0 mi West 4.6 mph - N/A   Clear
2:53 AM 66.9 °F 60.1 °F 79% 29.77 in 10.0 mi West 5.8 mph - N/A   Partly Cloudy
3:53 AM 66.0 °F 61.0 °F 84% 29.78 in 10.0 mi WSW 5.8 mph - N/A   Clear
4:53 AM 64.9 °F 61.0 °F 87% 29.80 in 10.0 mi West 8.1 mph - N/A   Clear
5:53 AM 63.0 °F 61.0 °F 93% 29.81 in 8.0 mi WNW 6.9 mph - N/A   Clear
6:53 AM 64.9 °F 61.0 °F 87% 29.84 in 7.0 mi North 10.4 mph - N/A   Clear
7:53 AM 66.9 °F 59.0 °F 76% 29.86 in 8.0 mi North 10.4 mph - N/A   Partly Cloudy
8:53 AM 70.0 °F 57.0 °F 63% 29.89 in 10.0 mi North 9.2 mph - N/A   Partly Cloudy
9:53 AM 72.0 °F 57.0 °F 59% 29.91 in 10.0 mi NNE 10.4 mph - N/A   Clear
10:53 AM 73.9 °F 55.9 °F 53% 29.92 in 10.0 mi North 13.8 mph - N/A   Clear
11:53 AM 75.0 °F 54.0 °F 48% 29.92 in 10.0 mi NNW 15.0 mph 23.0 mph N/A   Partly Cloudy
12:53 PM 75.0 °F 51.1 °F 43% 29.93 in 10.0 mi NNW 18.4 mph 27.6 mph N/A   Partly Cloudy
1:53 PM 77.0 °F 51.1 °F 40% 29.92 in 10.0 mi NNW 9.2 mph 21.9 mph N/A   Partly Cloudy
2:53 PM 78.1 °F 48.9 °F 36% 29.93 in 10.0 mi NW 16.1 mph 23.0 mph N/A   Partly Cloudy
3:53 PM 79.0 °F 50.0 °F 36% 29.92 in 10.0 mi North 12.7 mph 19.6 mph N/A   Scattered Clouds
4:53 PM 77.0 °F 51.1 °F 40% 29.92 in 10.0 mi NNW 13.8 mph 20.7 mph N/A   Scattered Clouds
5:53 PM 77.0 °F 50.0 °F 39% 29.92 in 10.0 mi North 15.0 mph 23.0 mph N/A   Partly Cloudy
6:53 PM 75.0 °F 45.0 °F 34% 29.93 in 10.0 mi NNW 12.7 mph - N/A   Clear
7:53 PM 71.1 °F 45.0 °F 39% 29.95 in 10.0 mi North 11.5 mph - N/A   Clear
8:53 PM 68.0 °F 43.0 °F 40% 29.97 in 10.0 mi North 10.4 mph - N/A   Clear
9:53 PM 63.0 °F 43.0 °F 48% 29.99 in 10.0 mi North 6.9 mph - N/A   Clear
10:53 PM 62.1 °F 44.1 °F 52% 30.00 in 10.0 mi NNE 3.5 mph - N/A   Clear
11:53 PM 60.1 °F 46.9 °F 62% 30.01 in 10.0 mi Calm Calm - N/A   Clear